Home   Weather   Lakewood   Past weeks

Flag for USA Past Weather in Lakewood, Colorado, USA — Yesterday and Last 2 Weeks

Now
43 °F

Partly cloudy.


Feels Like: 36 °F
Forecast: 24 / 38 °F
Wind: 13 mph from Southwest

Location: Centennial Airport

Current Time: Feb 27, 2017 at 8:14:37 pm

Latest Report: Feb 27, 2017 at 6:53 pm


Visibility: 10 mi

Pressure: 29.63 "Hg (24.11 "Hg at 1683m altitude)

Humidity: 24%

Dew Point: 8 °F

Location of LakewoodLocation

Past Weather in Lakewood — Graph

°F

Lakewood Temperature Yesterday

Maximum temperature yesterday: 40 °F (at 2:53 pm)
Minimum temperature yesterday: 15 °F (at 1:53 am)
Average temperature yesterday: 27 °F

High & Low Weather Summary for the Past Weeks

 TemperatureHumidityPressure
High72 °F (Feb 16, 1:53 pm)93% (Feb 23, 11:16 am)30.37 "Hg (Feb 23, 11:16 am)
Low12 °F (Feb 25, 6:53 am)4% (Feb 16, 12:53 pm)29.45 "Hg (Feb 19, 3:53 pm)
Average40 °F40%29.87 "Hg
* Reported Feb 12 6:53 pm — Feb 27 6:53 pm, Lakewood, Weather by CustomWeather, © 2017

Note: Actual official high and low records may vary slightly from our data, if they occured in-between our weather recording intervals... More about our weather records

Advertising

Lakewood Weather History for the Previous 24 Hours

Scroll right to see more
 ConditionsComfort  
Time TempWeatherWind HumidityBarometerVisibility
6:53 pm
Mon, Feb 27
43 °FPartly cloudy.13 mph24%29.63 "Hg10 mi
5:53 pm45 °FPartly cloudy.15 mph21%29.59 "Hg10 mi
4:53 pm49 °FBroken clouds.18 mph16%29.57 "Hg10 mi
3:53 pm52 °FBroken clouds.17 mph13%29.51 "Hg10 mi
2:53 pm53 °FScattered clouds.26 mph11%29.52 "Hg10 mi
1:53 pm54 °FBroken clouds.28 mph14%29.53 "Hg10 mi
12:53 pm53 °FPassing clouds.22 mph15%29.56 "Hg10 mi
11:53 am50 °FPassing clouds.13 mph18%29.60 "Hg10 mi
10:53 am48 °FPassing clouds.14 mph20%29.61 "Hg10 mi
9:53 am45 °FPassing clouds.24 mph23%29.66 "Hg10 mi
8:53 am40 °FPassing clouds.13 mph28%29.69 "Hg10 mi
7:53 am35 °FPassing clouds.14 mph34%29.71 "Hg10 mi
6:53 am27 °FPassing clouds.13 mph45%29.72 "Hg10 mi
5:53 am24 °FClear.8 mph48%29.74 "Hg10 mi
4:53 am23 °FClear.7 mph50%29.73 "Hg10 mi
3:53 am27 °FClear.6 mph39%29.72 "Hg10 mi
2:53 am22 °FPassing clouds.3 mph50%29.75 "Hg10 mi
1:53 am20 °FPassing clouds.5 mph55%29.80 "Hg10 mi
12:53 am21 °FPassing clouds.3 mph50%29.81 "Hg10 mi
11:53 pm
Sun, Feb 26
20 °FPassing clouds.9 mph55%29.83 "Hg10 mi
10:53 pm27 °FPassing clouds.6 mph32%29.82 "Hg10 mi
9:53 pm23 °FPassing clouds.No wind42%29.87 "Hg10 mi
8:53 pm25 °FPassing clouds.5 mph42%29.88 "Hg10 mi
Weather by CustomWeather, © 2017

See weather overviewHow to use our weather pages